WetterOnline ( https://www.wetteronline.de )

Wetter aktuell Bönnigheim

Aktuelles Wetter: Mühlacker (245m)

6-stündlich | Neueste Meldungen
Ortszeit Temperatur Wetter
Sa, 24.10. 20:00 8.4° C wolkenlos
Sa, 24.10. 14:00 16.3° C leicht bewölkt
Sa, 24.10. 8:00 12.3° C fast wolkenlos
Sa, 24.10. 2:00 13.4° C bewölkt
Fr, 23.10. 20:00 13.8° C bedeckt
Fr, 23.10. 14:00 15.4° C leichter Regen
Fr, 23.10. 8:00 12.4° C Regen
Fr, 23.10. 2:00 12.8° C bedeckt
Ortszeit Temperatur Wetter
So, 25.10. 1:30 4.5° C fast wolkenlos
So, 25.10. 1:20 4.5° C fast wolkenlos
So, 25.10. 1:10 4.8° C wolkenlos
So, 25.10. 1:00 4.7° C leicht bewölkt
So, 25.10. 0:50 4.7° C leicht bewölkt
So, 25.10. 0:40 4.9° C wolkig
So, 25.10. 0:30 4.9° C leicht bewölkt
So, 25.10. 0:00 5.0° C wolkenlos
Sa, 24.10. 23:30 5.6° C leicht bewölkt
Sa, 24.10. 23:00 5.5° C wolkenlos
Sa, 24.10. 22:30 6.3° C wolkenlos
Sa, 24.10. 22:00 6.4° C fast wolkenlos
Ortszeit Relative Feuchte Sichtweite
Sa, 24.10. 20:00 97% 35 km
Sa, 24.10. 14:00 62% 14 km
Sa, 24.10. 8:00 90% 30 km
Sa, 24.10. 2:00 96% 30 km
Fr, 23.10. 20:00 97% 10 km
Fr, 23.10. 14:00 94% 7 km
Fr, 23.10. 8:00 99% 11 km
Fr, 23.10. 2:00 97% 22 km
Ortszeit Relative Feuchte Sichtweite
So, 25.10. 1:30 99% 7 km
So, 25.10. 1:20 99% -
So, 25.10. 1:10 100% -
So, 25.10. 1:00 99% 9 km
So, 25.10. 0:50 99% -
So, 25.10. 0:40 99% -
So, 25.10. 0:30 99% 13 km
So, 25.10. 0:00 98% 11 km
Sa, 24.10. 23:30 99% 15 km
Sa, 24.10. 23:00 98% 13 km
Sa, 24.10. 22:30 99% 15 km
Sa, 24.10. 22:00 99% 18 km
Ortszeit Niederschlagsmenge Niederschlagsart
Sa, 24.10. 20:00 0.0 l/m2 in 12 Std. -
Sa, 24.10. 14:00 0.1 l/m2 in 6 Std. -
Sa, 24.10. 8:00 0.1 l/m2 in 12 Std. Regen
Sa, 24.10. 2:00 0.1 l/m2 in 6 Std. Regen
Fr, 23.10. 20:00 5 l/m2 in 12 Std. Regen
Fr, 23.10. 14:00 1 l/m2 in 6 Std. Regen
Fr, 23.10. 8:00 2 l/m2 in 12 Std. Regen
Fr, 23.10. 2:00 0.1 l/m2 in 6 Std. Regen
Ortszeit Niederschlagsmenge Niederschlagsart
So, 25.10. 1:30 0.0 l/m2 in 1 Std. -
So, 25.10. 1:20 keine Meldung -
So, 25.10. 1:10 keine Meldung -
So, 25.10. 1:00 0.0 l/m2 in 1 Std. -
So, 25.10. 0:50 keine Meldung -
So, 25.10. 0:40 keine Meldung -
So, 25.10. 0:30 0.0 l/m2 in 1 Std. -
So, 25.10. 0:00 0.0 l/m2 in 1 Std. -
Sa, 24.10. 23:30 0.0 l/m2 in 1 Std. -
Sa, 24.10. 23:00 0.0 l/m2 in 1 Std. -
Sa, 24.10. 22:30 0.0 l/m2 in 1 Std. -
Sa, 24.10. 22:00 0.0 l/m2 in 1 Std. -
Ortszeit Stärke Spitze Richtung
km/h Bft. km/h Grad Sektor
Sa, 24.10. 20:00 4 1 32 40° NO
Sa, 24.10. 14:00 15 3 30 250° W
Sa, 24.10. 8:00 7 2 22 250° W
Sa, 24.10. 2:00 7 2 11 280° W
Fr, 23.10. 20:00 2 1 15 280° W
Fr, 23.10. 14:00 2 1 17 90° O
Fr, 23.10. 8:00 4 1 11 80° O
Fr, 23.10. 2:00 2 1 15 110° O
Ortszeit Stärke Spitze Richtung
km/h Bft. km/h Grad Sektor
So, 25.10. 1:30 0 0 7 - -
So, 25.10. 1:20 2 1 - 280° W
So, 25.10. 1:10 4 1 - 140° SO
So, 25.10. 1:00 4 1 4 80° O
So, 25.10. 0:50 4 1 - 80° O
So, 25.10. 0:40 0 0 - 300° NW
So, 25.10. 0:30 0 0 4 - -
So, 25.10. 0:00 0 0 4 - -
Sa, 24.10. 23:30 0 0 4 - -
Sa, 24.10. 23:00 4 1 7 280° W
Sa, 24.10. 22:30 4 1 7 130° SO
Sa, 24.10. 22:00 4 1 4 120° SO
Ortszeit Untergrenze Bedeckung Gattung
total tief tief mittel hoch
Sa, 24.10. 20:00 - 0/8 0/8 - - -
Sa, 24.10. 14:00 1050 m 3/8 3/8 - - -
Sa, 24.10. 8:00 900 m 1/8 1/8 - - -
Sa, 24.10. 2:00 480 m 8/8 7/8 - - -
Fr, 23.10. 20:00 390 m 8/8 8/8 - - -
Fr, 23.10. 14:00 990 m 7/8 7/8 - - -
Fr, 23.10. 8:00 1500 m 8/8 7/8 - - -
Fr, 23.10. 2:00 1500 m 8/8 8/8 - - -
Ortszeit Bedeckungsgrad in Achtel und Wolkenuntergrenze
So, 25.10. 1:30 2(8700m)
So, 25.10. 1:20 2(8700m)
So, 25.10. 1:10 keine Wolken
So, 25.10. 1:00 5(8700m)
So, 25.10. 0:50 5(8700m)
So, 25.10. 0:40 8(8700m)
So, 25.10. 0:30 4(8700m)
So, 25.10. 0:00 1(9000m)
Sa, 24.10. 23:30 4(9000m)
Sa, 24.10. 23:00 keine Wolken
Sa, 24.10. 22:30 keine Wolken
Sa, 24.10. 22:00 1(2100m)
Ortszeit Luftdruck NN (hPa) Tendenz (hPa in 3 Std.)
Sa, 24.10. 20:00 1017 - 0,1
Sa, 24.10. 14:00 1018 - 0,6
Sa, 24.10. 8:00 1018 + 0,9
Sa, 24.10. 2:00 1016 + 0,3
Fr, 23.10. 20:00 1014 + 1,2
Fr, 23.10. 14:00 1013 - 0,8
Fr, 23.10. 8:00 1014 - 1,1
Fr, 23.10. 2:00 1016 - 0,4
Ortszeit Luftdruck NN (hPa) Tendenz (hPa in 3 Std.)
So, 25.10. 1:30 1016 - 1,5
So, 25.10. 1:20 1016 keine Meldung
So, 25.10. 1:10 1016 keine Meldung
So, 25.10. 1:00 1016 - 1,3
So, 25.10. 0:50 1016 keine Meldung
So, 25.10. 0:40 1016 keine Meldung
So, 25.10. 0:30 1016 - 1,1
So, 25.10. 0:00 1016 - 1,2
Sa, 24.10. 23:30 1017 - 1,0
Sa, 24.10. 23:00 1017 - 0,7
Sa, 24.10. 22:30 1017 - 0,6
Sa, 24.10. 22:00 1017 - 0,4
Ortszeit Schneehöhe (cm)
Sa, 24.10. 20:00 0
Sa, 24.10. 14:00 0
Sa, 24.10. 8:00 0
Sa, 24.10. 2:00 0
Fr, 23.10. 20:00 0
Fr, 23.10. 14:00 0
Fr, 23.10. 8:00 0
Fr, 23.10. 2:00 0
Ortszeit Schneehöhe (cm)
So, 25.10. 1:30 0
So, 25.10. 1:20 0
So, 25.10. 1:10 0
So, 25.10. 1:00 0
So, 25.10. 0:50 0
So, 25.10. 0:40 0
So, 25.10. 0:30 0
So, 25.10. 0:00 0
Sa, 24.10. 23:30 0
Sa, 24.10. 23:00 0
Sa, 24.10. 22:30 0
Sa, 24.10. 22:00 0
Link zu dieser Seite / Seite empfehlen

Das Wetter in ...